Location: Camerons Lookout
(40.9833°S, 175.9333°E)
Time: 06:20:58
(UTC+00:00)

IRAS Rocket - Pass Details

Date: 14 January 2026
Orbit: 846 x 875 km, 100.1° (Epoch: 17 February)

Event Time Altitude Azimuth Distance (km) Brightness Sun altitude
Rises 08:29:27 0° 166° (SSE) 3,454 7.7 -7.2°
Reaches altitude 10° 08:31:50 10° 167° (SSE) 2,509 7.0 -7.5°
Maximum altitude 08:37:24 81° 252° (WSW) 872 4.4 -8.4°
Drops below altitude 10° 08:42:53 10° 339° (NNW) 2,471 6.5 -9.2°
Sets 08:45:14 0° 340° (NNW) 3,399 7.2 -9.5°
